Vertical_Velocity
3 -3 2 5 3 2 1 -0 1 1 2 1 1 -0 -0 -1 -2 -4 -2 -2 -2 -2
10 -3 2 -2 2 -3 -2 3 -0 2 3 1 -0 -1 -1 -1 -2 -3 -2 -1 -2 -1
2 -1 -2 1 -1 -1 3 0 0 -1 0 1 0 -0 -0 -1 -2 -4 -3 -1 -2 -3
2 2 -3 2 3 -0 -0 1 1 1 -1 -0 -1 -0 -2 -1 -3 -2 -1 -2 -2 -2
-1 0 -2 -0 -0 1 0 1 1 1 -0 -1 -0 -2 -3 -3 -2 -0 -1 -1 -2 -2
1 -4 5 0 3 3 2 2 2 0 -0 -2 -1 -2 -4 -2 -1 -2 -1 -2 -1 -0
0 4 0 3 4 4 6 5 3 2 -1 -2 -2 -3 -4 -1 -1 -0 -0 0 -1 -1
3 -3 11 2 4 4 1 1 2 -1 -0 -2 -2 -2 -2 -2 -1 -1 1 -0 -1 -1
-4 9 3 6 4 9 -1 -5 -3 1 -0 -1 -2 -1 -1 -1 0 -0 -2 -1 -1 -2
10 6 2 -3 -4 -11 -4 1 1 2 1 0 -3 -2 -1 1 -0 -2 -1 -2 -1 0
5 8 -2 -5 -9 -1 -1 4 2 3 1 -5 -1 -2 1 -1 -2 -2 -1 1 -0 -1
-6 -15 -4 -6 0 1 4 4 4 -5 -3 -0 -2 3 -1 -2 -2 -0 1 -1 -1 -2
-6 -2 4 3 3 5 5 -2 -3 -1 0 0 -1 -1 -2 -2 -2 -1 -3 -2 -2 -1
2 1 2 3 4 -3 -1 -0 1 0 -1 -0 -1 -2 -0 -1 -1 -3 -2 -2 -1 1
Height
3052 3055 3057 3060 3063 3065 3067 3070 3072 3074 3076 3076 3076 3075 3074 3072 3070 3067 3063 3059 3055 3051
3046 3048 3051 3054 3057 3059 3061 3065 3068 3070 3071 3071 3070 3070 3068 3066 3063 3059 3056 3051 3047 3042
3039 3042 3045 3049 3052 3055 3058 3061 3063 3065 3066 3066 3065 3064 3062 3059 3056 3051 3047 3042 3037 3032
3034 3037 3040 3044 3047 3050 3054 3057 3058 3060 3060 3060 3059 3057 3055 3051 3047 3043 3038 3033 3028 3023
3028 3032 3035 3039 3042 3046 3049 3052 3054 3054 3054 3054 3053 3051 3047 3043 3039 3035 3029 3024 3018 3013
3024 3027 3032 3035 3039 3042 3045 3047 3048 3048 3048 3048 3046 3043 3040 3035 3031 3026 3020 3015 3009 3002
3019 3024 3028 3031 3035 3037 3040 3041 3042 3042 3042 3040 3039 3035 3031 3027 3022 3017 3011 3005 2998 2993
3017 3020 3023 3027 3030 3034 3036 3037 3037 3037 3035 3033 3030 3027 3022 3017 3012 3007 3001 2995 2990 2983
3012 3015 3020 3023 3026 3029 3030 3029 3032 3030 3028 3025 3021 3018 3013 3008 3003 2997 2992 2987 2981 2974
3007 3010 3015 3020 3023 3024 3026 3026 3024 3023 3020 3016 3013 3009 3004 2999 2994 2988 2983 2977 2970 2963
3006 3007 3012 3015 3016 3019 3020 3019 3017 3014 3011 3008 3004 2999 2995 2990 2985 2980 2974 2967 2960 2952
3000 3004 3008 3011 3013 3013 3012 3011 3009 3006 3004 3000 2994 2992 2986 2982 2977 2970 2964 2957 2950 2943
2998 3002 3004 3006 3007 3007 3006 3004 3002 2999 2995 2992 2987 2983 2979 2974 2967 2961 2954 2948 2941 2933
2997 3000 3001 3002 3002 3001 3000 2998 2995 2992 2988 2985 2981 2975 2970 2963 2957 2950 2944 2937 2930 2923